Location: Étang Rond
(42.7927°N, 1.0661°E)
Time: 01:38:04
(UTC+00:00)

ARIANE 5 R/B - Pass Details

Date: 08 November 2025
Orbit: 746 x 792 km, 98.8° (Epoch: 07 December)

Event Time Altitude Azimuth Distance (km) Brightness Sun altitude
Rises 05:45:19 0° 23° (NNE) 3,220 5.9 -10.2°
Reaches altitude 10° 05:47:50 10° 33° (NNE) 2,297 5.2 -9.7°
Maximum altitude 05:52:24 34° 97° (E) 1,254 4.5 -8.9°
Drops below altitude 10° 05:56:59 10° 162° (SSE) 2,308 5.5 -8.1°
Sets 05:59:30 0° 171° (S) 3,237 6.1 -7.7°
